Terminal Aerodrome Forecast
Issued by NWS Dallas/Fort Worth, TX

Home | Current Version | Previous Version | Text Only | Print | Product List | Glossary On
Versions: 1 2 3 4 5 6 7 8 9 10 11 12 13 14 15 16 17 18 19 20 21 22 23 24 25 26 27 28 29 30 31 32 33
000
FTUS44 KFWD 181500 AAA
TAFDFW
TAF AMD
KDFW 181500Z 1815/1918 22005KT P6SM BKN150
     FM181900 19010KT P6SM VCTS SCT050CB
     FM182100 17008KT P6SM SCT250=

USA.gov is the U.S. government's official web portal to all federal, state and local government web resources and services.